Theta_e
317 318 318 318 319 321 320 320 319 318 316 316 316 317 317 317 317 316 316 315 315 314 314 314 315 315 319 314 311 319 325 328 320 321 316 314 311 310 305 306 306 304 304 305 305 305 306
317 317 318 318 320 320 319 319 318 317 316 316 317 317 317 317 316 316 315 314 313 312 312 313 314 314 318 307 318 319 319 319 318 318 314 314 311 311 307 306 304 306 305 304 306 306 306
317 317 317 318 319 319 318 317 316 316 316 316 317 317 317 316 316 315 315 314 312 311 313 313 313 318 317 312 318 319 318 317 318 318 314 315 316 310 310 305 309 307 303 305 306 307 306
317 317 317 318 318 318 317 317 315 315 316 317 317 317 317 316 315 314 313 312 312 312 312 312 312 319 312 318 319 317 317 316 317 319 317 317 317 314 311 311 306 303 305 299 305 307 308
316 316 316 317 318 317 317 316 314 314 316 317 317 317 316 315 315 313 313 313 313 313 313 312 316 321 310 317 313 316 317 313 315 317 317 316 315 309 308 303 301 303 297 300 302 307 307
316 315 315 317 318 317 317 316 315 315 316 316 317 317 316 316 315 314 314 314 314 313 315 319 321 315 311 309 313 314 317 316 314 314 312 311 310 305 305 302 294 296 298 299 299 304 303
315 315 314 316 317 316 316 316 315 315 315 316 316 317 316 315 315 314 313 317 314 313 317 310 309 308 308 311 315 313 315 314 314 311 306 308 303 301 302 303 302 301 299 298 302 305 302
315 313 313 316 316 315 315 316 315 314 315 315 315 317 316 315 315 314 316 320 319 318 306 312 312 311 313 315 308 310 316 309 308 303 306 302 300 304 305 304 302 301 299 299 302 304 302
314 312 313 315 315 314 315 315 315 314 314 314 315 315 316 314 314 316 325 323 328 327 307 308 311 309 311 314 308 308 313 309 306 304 302 301 302 305 303 303 301 301 299 300 299 303 304
314 312 313 315 315 314 314 314 314 314 314 314 315 315 315 313 314 326 321 326 331 331 302 300 305 308 311 312 306 313 314 310 306 302 304 303 305 303 303 302 302 298 303 301 300 298 294
313 311 313 314 314 313 313 313 313 313 313 314 315 316 313 312 323 319 324 330 332 329 294 303 305 315 311 308 309 309 315 311 303 303 304 301 303 303 302 301 303 301 304 301 301 299 298
311 311 313 314 314 313 313 313 312 312 313 314 315 317 313 319 329 327 331 333 330 308 293 300 306 305 305 307 307 310 309 313 312 305 306 304 307 306 304 305 304 306 304 303 302 300 294
312 312 313 314 314 313 313 312 311 312 313 316 316 316 317 330 323 334 338 324 305 298 303 299 301 305 304 303 305 306 305 305 303 298 299 303 303 306 306 303 307 304 301 294 293 294 292
312 313 312 314 313 313 312 311 311 311 313 316 317 316 325 332 334 339 330 311 297 299 299 304 304 304 301 304 303 304 304 301 305 304 300 297 295 302 305 302 299 301 299 295 286 289 292
313 313 312 313 313 312 311 311 311 311 312 316 315 335 334 337 340 337 317 308 301 300 304 302 303 300 300 302 303 303 302 300 301 304 298 297 296 304 304 305 303 301 296 300 295 295 291
313 312 311 312 312 312 310 310 310 311 312 316 323 321 321 336 339 329 314 303 303 306 305 304 298 302 298 300 300 302 301 303 301 304 305 299 296 301 302 305 305 302 302 295 297 287 284
312 312 311 312 312 311 308 309 309 310 311 315 328 311 328 335 334 314 309 306 304 307 308 303 302 300 302 300 302 301 300 303 305 304 305 302 300 297 302 300 298 300 299 298 296 294 287
312 311 311 312 312 309 309 309 309 309 310 317 326 307 330 336 307 309 308 306 304 306 309 308 307 305 303 303 301 301 300 303 306 306 300 301 299 297 296 302 303 301 299 298 293 290 294
311 311 311 312 311 307 309 308 309 309 309 324 313 315 328 329 306 314 308 306 307 305 306 306 305 307 307 304 299 302 303 307 307 305 302 303 300 294 294 299 302 298 300 298 298 294 289
310 310 310 309 309 307 308 308 309 309 309 319 317 308 311 315 317 309 306 304 304 309 307 308 307 307 306 303 305 302 302 305 307 305 303 304 299 295 291 293 297 294 296 297 296 292 291
310 310 309 308 306 306 308 308 308 308 309 320 319 311 310 310 311 309 309 306 304 302 307 308 305 305 304 301 302 301 304 303 304 302 304 303 297 297 296 296 296 295 295 295 294 295 290
310 309 308 309 306 306 308 309 308 308 307 321 314 312 314 312 312 308 304 305 304 304 305 303 303 306 306 302 301 300 302 301 301 304 303 303 297 294 293 297 296 293 295 295 295 295 295
310 308 308 309 308 308 310 308 307 308 311 322 320 322 316 306 310 308 308 306 305 308 308 308 307 306 303 305 308 308 308 307 305 303 302 298 296 293 290 294 292 290 294 296 296 298 297
309 308 308 311 311 311 310 308 307 308 309 327 324 320 315 308 312 308 308 308 306 307 305 307 308 306 308 311 309 308 307 306 306 304 306 293 294 294 289 289 285 296 300 300 297 298 299
309 308 310 311 310 310 309 308 307 307 309 325 323 322 314 294 311 308 307 307 308 308 307 307 309 311 313 309 304 295 295 292 296 301 303 303 299 288 287 287 291 294 298 296 295 294 300
308 309 310 310 310 309 309 308 307 307 308 325 322 324 320 310 310 310 307 308 308 307 307 306 312 315 313 311 298 289 293 294 293 294 301 300 298 296 288 284 282 296 300 303 301 290 302
308 309 309 310 309 309 309 308 307 307 308 319 323 326 324 314 313 313 309 309 312 309 306 307 309 307 311 299 289 296 295 298 291 289 288 289 292 289 288 286 290 298 301 302 289 292 302
307 308 308 309 309 310 309 308 307 307 307 316 324 325 323 317 313 315 314 312 311 311 307 309 307 309 307 291 293 298 292 298 296 297 292 290 289 286 289 286 284 302 300 293 300 304 302
307 307 307 308 308 309 310 308 308 307 307 309 323 324 326 321 315 321 318 319 316 315 314 313 308 308 310 303 299 301 290 290 294 290 299 293 298 296 294 294 303 304 302 305 304 302 301
Wind_Speed
8 8 9 10 12 13 14 14 13 11 15 15 15 13 12 14 13 13 12 13 11 11 10 10 11 10 8 7 2 9 7 10 10 9 12 12 14 14 9 8 8 7 5 8 8 6 1
8 8 9 10 12 12 15 14 12 11 14 14 12 11 11 12 13 13 13 12 11 10 9 10 10 10 5 11 3 1 6 11 9 13 10 7 5 5 4 7 7 8 8 9 9 7 4
8 8 9 9 10 11 13 11 11 12 13 13 11 10 11 14 13 13 12 10 10 9 9 9 7 7 8 6 3 3 3 7 7 10 8 5 10 6 3 4 2 7 9 7 7 8 6
8 8 9 9 10 10 10 10 12 11 11 11 11 10 10 11 12 12 11 11 10 10 10 8 6 6 7 2 10 6 6 6 3 5 4 1 7 9 6 8 5 9 10 10 12 9 6
7 7 8 8 10 9 10 10 10 11 10 9 9 9 9 9 10 12 13 12 11 11 9 5 6 6 6 4 7 4 5 9 4 2 2 1 6 5 2 9 9 9 10 9 9 7 1
7 6 7 8 9 10 9 10 9 10 9 8 6 7 8 10 11 12 10 7 6 7 7 9 11 8 4 2 3 2 2 6 4 3 6 6 6 9 11 8 4 10 11 7 4 9 7
5 6 6 7 9 10 10 8 8 10 8 5 2 6 9 10 11 10 6 5 6 4 9 7 10 2 6 7 6 3 2 7 6 6 10 6 8 7 12 8 7 10 7 7 15 7 3
4 6 5 6 8 9 10 10 7 7 7 1 1 4 7 8 9 7 6 7 7 6 6 4 6 5 2 4 6 7 4 7 4 11 0 5 6 8 6 7 6 6 6 7 6 5 6
4 5 5 6 7 8 10 10 9 8 5 2 2 1 5 6 4 4 10 6 7 11 5 4 5 5 3 2 6 3 8 5 8 8 5 13 10 4 4 5 8 3 7 9 9 7 8
5 3 4 6 6 7 9 10 9 7 5 2 2 1 5 9 2 7 4 3 5 5 5 7 6 4 3 0 4 2 5 5 4 5 8 8 4 3 1 6 9 3 6 5 8 8 7
5 2 4 5 7 8 9 9 9 7 5 3 1 2 9 15 9 6 5 4 5 2 3 3 6 2 4 3 5 6 2 7 2 3 4 6 4 5 4 6 7 6 5 6 8 9 10
4 2 3 5 6 8 9 9 8 7 6 4 1 3 9 4 5 5 4 5 3 3 2 5 5 7 6 3 2 4 3 5 4 3 11 8 3 8 7 4 2 6 9 9 8 9 3
4 2 2 4 6 8 8 9 8 7 5 1 4 8 4 7 3 3 4 3 4 3 6 7 9 7 9 5 6 6 5 5 4 4 5 8 6 6 7 10 6 8 8 4 2 2 4
5 3 1 4 7 8 8 10 9 7 5 4 3 2 1 5 4 3 3 6 6 3 6 8 9 10 8 6 5 0 11 9 9 12 5 7 7 6 7 7 8 5 7 3 3 4 3
6 3 1 4 7 8 8 9 9 7 5 3 3 3 4 2 3 2 6 2 7 6 7 8 10 7 5 4 2 6 13 8 8 11 7 5 8 6 7 6 8 7 6 4 1 2 1
7 4 1 3 6 8 8 10 11 7 5 2 4 5 4 1 2 3 4 6 0 7 5 10 8 3 7 7 8 5 4 5 4 9 6 5 3 5 3 4 4 5 1 2 3 2 3
8 5 2 2 5 7 8 10 11 9 6 2 4 6 4 3 2 6 4 5 1 2 9 5 2 5 5 4 3 3 6 6 7 6 6 7 5 3 5 8 9 0 2 2 4 2 2
9 6 4 2 5 6 8 9 11 10 9 2 4 5 4 3 6 7 8 2 1 7 2 4 5 4 4 4 2 5 9 9 5 5 5 4 3 2 8 5 3 3 5 3 1 1 3
10 8 4 2 5 7 8 10 10 10 8 5 6 5 3 4 5 2 3 6 3 7 7 4 2 2 2 6 3 7 8 5 5 8 5 5 2 3 8 5 3 3 4 1 7 2 3
9 8 6 3 4 7 9 10 11 11 6 2 4 4 5 5 8 10 7 7 5 4 4 2 5 4 5 5 5 6 9 4 5 7 4 3 1 2 2 5 7 7 8 8 8 3 5
9 8 6 4 3 6 9 11 10 10 6 2 4 5 7 6 6 6 10 9 10 6 4 6 5 5 7 2 6 5 12 8 4 2 1 3 3 6 8 9 9 10 11 11 12 9 8
9 8 5 3 4 6 8 10 10 10 6 4 3 2 3 6 10 8 5 6 10 8 8 7 5 7 7 6 4 6 7 4 4 3 2 6 2 3 3 4 10 12 14 14 15 14 9
9 8 5 3 3 5 7 9 11 11 5 4 1 1 2 2 4 6 5 8 9 9 4 7 7 9 12 13 13 11 11 8 6 3 5 4 2 1 2 9 10 2 4 5 4 6 9
9 7 5 3 4 6 7 9 11 12 8 3 4 2 4 1 3 6 10 8 11 9 6 9 9 9 9 15 13 12 13 10 7 6 7 5 3 2 3 5 3 3 12 12 9 7 7
9 7 4 3 5 6 7 9 11 13 12 2 1 3 4 2 6 9 9 8 12 7 11 14 10 12 10 3 4 3 3 5 5 5 8 5 2 3 1 3 9 11 4 7 5 9 10
8 7 4 4 5 6 8 9 11 13 14 3 3 3 2 5 3 8 8 12 8 8 6 5 5 4 2 2 3 3 3 2 6 6 9 6 5 1 3 2 4 2 8 7 8 8 8
8 7 5 4 5 6 7 9 10 12 14 5 3 4 3 3 4 4 7 9 8 8 6 7 5 2 1 3 3 3 3 2 6 6 4 3 1 3 4 4 7 9 4 4 4 2 5
8 7 5 4 4 5 7 8 10 11 12 6 3 3 3 3 4 5 1 8 4 6 5 9 4 2 2 4 3 2 2 4 2 3 7 7 7 4 3 4 6 2 2 1 4 6 4
6 6 5 3 3 4 6 7 9 11 13 8 0 0 3 3 4 6 6 6 6 8 5 8 3 7 5 3 2 1 2 2 2 3 9 4 6 4 10 7 8 3 5 4 2 3 2
Wind_Direction
274 295 303 308 303 301 305 306 301 297 292 284 275 266 256 255 251 250 254 257 265 276 287 293 302 314 284 237 204 128 259 198 190 212 234 219 222 221 217 165 188 102 102 89 117 159 137
282 298 307 310 303 308 309 311 308 302 294 283 270 259 249 244 242 244 249 255 262 269 278 289 301 310 253 267 57 307 332 298 238 226 236 260 306 324 118 173 204 137 139 141 161 139 157
286 305 309 306 311 311 313 314 308 306 293 281 267 253 239 237 236 239 244 248 254 263 274 281 298 282 259 290 338 327 245 329 343 327 315 11 319 237 64 66 22 148 164 171 176 152 161
287 306 311 313 317 312 312 316 309 304 295 276 260 244 231 228 231 234 240 242 247 252 263 274 288 250 274 80 339 226 309 238 275 296 41 143 263 296 342 102 212 195 234 201 155 164 174
288 311 313 324 318 317 326 318 312 310 293 273 248 236 223 220 218 223 227 234 240 246 250 250 228 231 235 143 220 26 272 304 132 221 56 220 231 186 215 202 192 211 229 197 149 188 71
281 311 321 331 321 329 337 316 319 307 290 270 244 228 226 217 215 216 221 232 237 257 221 217 260 249 208 128 45 254 231 275 233 174 211 232 220 194 208 220 343 333 225 152 211 145 204
284 304 325 336 328 333 331 324 317 298 276 246 215 214 212 213 214 207 180 213 202 185 222 298 158 163 133 93 185 186 129 204 253 217 241 214 268 56 24 25 350 328 7 332 100 98 313
280 296 328 338 339 332 329 330 322 286 277 279 194 203 202 204 210 197 257 252 33 31 131 101 87 83 5 17 129 126 241 236 209 242 137 235 76 46 2 17 333 315 339 292 65 70 275
271 292 330 341 346 334 323 330 325 307 304 321 21 282 200 193 138 195 242 13 353 360 131 72 12 76 9 314 37 72 308 248 226 242 213 49 70 51 4 48 335 152 347 18 340 327 270
260 292 332 342 342 335 324 332 324 318 307 326 20 306 153 136 184 215 216 344 15 343 184 150 190 107 169 150 107 22 324 321 267 83 71 63 66 13 330 84 346 348 37 317 283 275 271
246 288 327 347 335 331 327 328 326 320 299 276 178 152 165 204 311 205 35 2 347 273 181 202 89 41 152 293 126 94 78 247 183 111 269 106 85 1 48 17 332 46 333 296 286 271 276
222 257 326 346 332 332 330 328 331 324 295 270 171 123 144 200 235 27 22 338 294 298 142 159 155 148 129 112 59 104 107 35 331 127 62 82 74 44 4 299 305 299 256 234 256 249 268
204 205 316 342 337 334 329 337 343 327 292 220 112 129 187 312 358 36 335 230 233 274 148 143 151 209 125 113 103 150 130 77 323 182 163 141 69 108 349 288 204 334 325 258 238 164 237
197 183 311 359 340 330 344 344 346 328 290 192 131 120 248 49 358 10 261 233 239 1 187 130 147 147 136 136 119 135 144 97 38 323 196 200 140 6 19 21 348 344 316 37 329 352 6
189 180 327 4 338 331 355 346 351 329 283 183 85 194 201 65 312 294 258 220 187 258 122 159 159 167 147 150 182 96 67 69 27 21 25 334 92 112 51 354 345 3 40 354 178 347 295
180 183 204 4 336 342 354 352 356 330 295 218 194 186 159 109 315 267 246 257 214 344 148 171 183 272 169 151 171 174 97 20 80 21 349 46 128 29 52 249 77 42 4 324 18 332 323
167 181 181 12 339 358 359 356 360 350 340 104 244 208 117 136 271 230 220 225 110 83 331 218 144 204 113 140 161 108 77 95 25 57 52 354 331 94 234 23 13 108 63 32 324 18 294
168 180 176 60 360 359 357 356 357 0 355 262 199 218 146 164 194 228 226 120 72 165 241 58 18 117 124 133 85 75 99 54 45 331 53 36 78 307 67 74 10 3 19 8 348 33 105
172 174 173 90 18 356 346 348 357 8 10 292 210 123 165 205 208 240 121 121 179 170 175 166 101 42 77 122 98 111 109 65 26 33 33 352 47 254 152 156 143 307 56 60 94 101 250
180 173 167 105 23 0 346 344 349 0 13 262 237 119 147 201 271 194 184 166 134 25 102 94 109 160 124 141 96 133 118 101 56 68 330 310 87 97 353 324 337 303 276 259 253 188 263
178 173 162 128 39 10 350 337 345 353 1 255 255 180 168 186 254 233 184 181 160 165 180 176 167 169 143 117 124 133 118 136 135 142 191 18 41 6 322 315 304 300 291 285 272 254 240
170 168 169 125 62 14 353 340 343 350 355 253 301 159 182 156 208 224 116 208 187 168 166 173 192 180 140 142 190 152 138 167 121 173 70 45 93 353 263 347 349 308 294 292 282 272 291
164 161 169 122 77 18 9 355 346 353 337 257 75 306 228 329 193 207 161 232 197 105 314 172 156 105 70 69 65 61 53 51 72 132 104 53 139 4 287 347 314 322 260 274 331 311 317
162 161 169 133 67 30 16 8 353 355 0 305 20 268 80 169 193 188 207 209 141 165 171 107 114 100 106 100 67 40 44 41 86 71 105 119 70 67 300 310 11 42 319 293 317 282 284
154 161 179 115 72 38 20 14 3 353 355 326 343 312 108 143 208 203 208 178 109 125 106 83 52 110 147 88 116 102 48 43 334 60 106 125 151 88 336 306 297 302 58 30 7 308 321
153 156 143 103 67 40 26 16 10 358 356 300 55 312 82 127 229 201 175 135 143 110 82 99 72 77 101 87 95 151 160 175 149 138 41 62 80 293 126 243 255 334 41 41 321 276 57
152 144 134 103 65 38 27 19 10 1 360 334 70 4 287 94 62 299 145 155 154 178 126 143 154 107 250 85 95 192 172 297 173 176 181 91 159 212 199 245 278 269 337 354 238 40 28
146 140 133 107 64 32 20 15 8 358 1 354 89 17 335 70 67 19 30 172 166 165 145 139 124 73 78 83 162 177 140 226 156 174 167 168 168 196 196 235 254 348 344 199 19 344 89
131 142 147 138 84 29 12 10 3 358 352 354 170 323 323 35 78 27 42 23 11 9 139 168 172 141 157 130 130 54 162 22 103 220 203 211 190 185 184 212 224 98 213 300 332 237 82